カタログに戻る

METEOR 1-20

運用中気象PO
NORAD 7574·PAYLOAD·🇷🇺 Russia

打ち上げ Dec 17, 1974 から Plesetsk Cosmodrome

Loading…

次のパス (今後24時間)

TLE

最新Source: Space-Track

元期: Sep 14, 2026, 08:24 UTC

1 07574U 74099A   26257.35032235 -.00000028  00000-0 -22165-4 0  9999
2 07574  81.2317 232.2129 0017244  54.5873 305.6906 14.12077896663041

AllMySatでMETEOR 1-20をリアルタイム追跡

Download on the App Store